Location: Wapato
(46.4478°N, 120.4212°W)
Time: 22:44:02
(UTC+00:00)

Vanguard 1 Rocket - Pass Details

Date: 13 May 2026
Orbit: 656 x 4211 km, 34.3° (Epoch: 2 June)

Event Time Altitude Azimuth Distance (km) Brightness Sun altitude
Rises 06:16:04 0° 278° (W) 7,009 12.4 -21.2°
Reaches altitude 10° 06:21:20 10° 268° (W) 6,436 12.0 -21.6°
Maximum altitude 06:38:12 28° 220° (SW) 5,862 11.2 -22.7°
Enters shadow 06:49:18 21° 188° (S) 6,459 11.2 -23.3°
Drops below altitude 10° 06:57:23 10° 172° (S) 7,201 - -23.7°
Sets 07:04:01 0° 162° (SSE) 7,926 - -24.0°
